Wind_Speed
8 8 7 7 3 9 18 21 7 5 8 5 3 3 9 7 8 6 3 7 13 15 13 13 14 12 12 13 14 13 11 12 12 13 15 17 19 20 20 19 17 17 17 17 18 19 21 21 22
9 9 9 7 11 18 18 13 12 8 9 1 5 4 5 3 3 8 3 8 18 16 14 13 14 13 12 11 11 11 10 11 11 12 13 15 17 20 21 21 20 19 17 17 18 20 20 21 22
9 12 7 5 14 23 17 7 7 12 1 5 4 2 8 3 4 2 13 14 21 17 17 16 14 14 13 10 8 10 10 11 11 11 12 14 16 18 21 23 23 21 20 18 18 19 21 22 23
10 11 9 15 20 21 19 6 4 3 10 3 4 8 6 8 12 17 21 20 15 22 20 23 20 16 14 9 7 8 10 11 11 11 12 14 16 17 19 22 24 24 21 20 20 19 18 20 23
12 7 14 17 20 21 19 16 12 8 9 13 6 5 9 7 11 15 19 16 18 18 24 24 25 19 15 12 8 7 8 9 10 12 13 15 17 19 20 21 23 24 21 20 20 19 20 19 21
15 10 15 20 21 21 19 17 11 13 14 14 14 10 6 10 8 7 11 17 16 15 25 23 25 23 18 16 14 12 12 11 11 12 14 15 18 20 22 22 23 24 22 21 21 21 22 22 27
17 14 19 19 22 22 17 10 9 10 13 15 5 3 9 9 11 20 16 15 18 20 26 29 24 27 21 19 18 17 17 14 14 15 15 16 18 21 24 23 22 25 24 22 23 22 22 23 24
18 18 23 25 27 25 21 8 9 14 15 9 5 11 14 11 20 19 16 12 14 26 22 27 31 25 27 22 19 21 20 18 18 18 18 19 20 22 25 25 22 25 25 22 22 22 22 20 20
18 24 29 27 25 26 22 23 16 15 14 22 17 14 18 19 23 21 19 14 15 17 25 36 38 34 25 21 21 23 24 23 24 22 21 21 22 24 27 27 23 24 24 22 22 22 21 21 19
27 31 33 24 25 27 26 25 25 22 23 24 21 19 22 22 21 21 20 21 20 21 21 34 33 43 30 24 23 24 26 26 28 26 25 24 25 26 29 32 29 28 25 22 23 21 20 20 20
30 42 30 30 28 28 30 29 29 29 31 26 31 28 28 28 29 27 24 21 21 25 24 27 31 36 39 28 28 25 27 28 30 29 28 27 27 29 30 31 31 32 31 25 24 21 21 21 19
36 38 35 33 32 33 35 33 36 35 36 33 36 30 36 32 30 29 24 23 23 24 29 23 34 38 37 33 31 25 24 26 31 30 30 30 29 29 30 29 29 31 30 28 26 25 20 19 20
41 38 36 37 36 37 37 41 44 45 42 43 41 41 39 36 36 30 27 25 27 30 28 19 30 30 35 28 26 28 26 26 30 31 31 31 30 30 32 31 31 29 29 29 25 22 19 20 21
41 39 42 43 45 43 45 47 45 48 44 46 42 41 40 39 38 35 31 29 31 31 35 25 35 39 39 25 25 28 31 31 33 35 34 31 31 31 33 31 31 29 26 25 23 23 21 21 21
43 49 50 52 47 49 45 54 54 48 41 42 42 42 40 39 37 39 31 30 31 30 36 34 33 41 35 29 26 29 30 33 36 38 34 34 32 31 33 31 31 31 26 25 23 21 21 22 22
45 46 54 54 49 56 45 57 57 48 41 43 39 36 37 36 30 27 30 30 29 34 38 34 30 32 34 32 30 33 33 35 37 36 34 35 33 31 33 32 29 31 26 25 23 22 22 22 23
44 46 53 57 53 48 44 48 53 44 40 43 41 37 36 39 35 34 31 33 31 34 37 31 27 33 33 33 32 33 35 35 36 36 34 34 33 31 32 30 29 28 24 24 23 23 23 24 23
45 48 55 48 40 37 42 45 49 41 37 40 41 38 36 38 38 38 34 31 34 34 35 29 23 29 31 32 32 35 39 37 35 33 32 33 33 33 34 31 29 25 23 24 23 23 23 24 24
43 50 49 46 41 39 40 44 49 42 39 41 39 39 40 37 34 35 39 41 30 37 35 28 26 29 32 31 31 32 36 35 30 28 28 30 31 32 32 31 25 25 24 23 23 23 25 21 19
46 45 47 44 36 36 38 41 44 43 40 38 36 38 35 38 39 35 33 33 36 33 32 29 30 29 28 30 30 32 31 29 22 23 26 28 29 29 27 25 25 26 25 24 22 20 19 19 18
47 49 46 46 35 36 35 42 43 42 40 40 38 38 41 44 41 42 37 32 36 34 28 28 26 25 25 28 28 27 28 22 19 20 24 27 27 24 24 24 19 18 15 14 12 13 14 13 14
47 42 38 37 35 34 31 31 46 40 37 35 34 33 35 35 33 31 28 31 31 29 24 17 17 20 21 22 22 21 15 14 17 20 24 26 26 24 24 18 16 13 10 10 11 13 13 13 13
54 34 35 35 37 35 36 30 52 29 29 26 27 31 31 28 28 27 23 30 30 27 22 17 19 20 16 15 14 12 11 15 18 20 22 19 20 20 19 13 9 7 7 8 9 8 9 11 12
34 37 36 36 35 25 45 36 51 38 32 31 30 29 25 25 22 21 31 32 27 25 22 20 17 14 11 9 10 10 12 16 18 20 17 17 16 16 11 7 6 3 5 3 2 2 3 5 8
40 36 25 23 22 23 33 35 47 36 29 29 26 23 18 14 18 23 22 26 26 22 19 15 12 9 9 10 9 11 11 14 17 17 15 13 13 9 5 6 2 0 1 3 2 0 2 4 6
48 45 27 24 15 22 38 35 43 34 27 22 15 15 11 12 17 21 24 25 24 17 13 9 8 9 9 9 11 12 12 15 13 9 11 10 9 5 6 3 2 1 2 4 4 4 4 7 6
38 50 45 36 33 24 27 35 39 26 25 18 11 12 13 16 19 24 23 20 16 12 9 7 8 9 9 11 11 10 11 12 7 7 9 7 4 5 3 2 3 2 1 3 3 3 3 3 6
43 39 45 39 23 21 27 28 18 12 21 15 14 16 20 18 17 17 16 14 11 10 8 8 9 8 9 9 9 10 9 6 5 6 4 4 3 3 4 4 2 1 2 3 3 3 2 3 6
42 43 53 36 38 16 14 19 17 13 8 14 16 20 20 15 15 15 14 11 9 8 8 8 8 7 7 7 8 8 5 2 3 2 2 0 1 3 5 6 3 1 2 2 1 1 14 11 12
43 40 38 30 33 36 26 26 8 11 11 14 18 23 22 17 17 17 12 10 9 9 8 8 7 5 5 7 7 4 1 2 2 3 1 3 3 3 5 3 4 2 2 2 1 2 7 13 8
Wind_Direction
208 199 203 200 225 242 252 255 245 238 247 213 324 325 333 340 344 13 356 311 314 329 312 321 332 321 323 336 343 347 341 342 355 2 2 3 1 358 350 340 328 316 303 285 274 269 266 260 253
203 190 195 148 235 240 251 255 280 281 140 187 310 303 315 295 5 70 198 285 292 321 305 310 321 312 315 328 337 341 336 333 341 351 355 355 356 357 351 345 334 320 308 295 282 273 266 265 263
201 181 146 255 240 249 271 298 256 238 84 284 314 304 303 207 200 243 270 289 282 319 311 305 309 314 307 318 333 348 342 327 324 334 340 343 344 349 350 344 337 324 311 299 288 280 272 264 260
186 193 200 226 251 249 262 205 284 214 264 273 286 295 316 222 245 276 296 297 286 310 320 317 305 300 298 301 327 341 346 341 320 317 323 332 336 337 340 344 340 330 317 304 292 284 277 275 268
211 169 246 249 256 263 274 285 282 277 277 292 255 288 320 286 275 270 288 302 314 280 305 317 302 294 294 283 298 313 316 320 320 311 316 323 329 333 331 332 340 334 321 309 299 288 279 270 272
210 213 244 250 259 261 266 275 266 290 293 290 284 245 275 328 178 288 301 302 311 284 275 311 294 286 284 276 276 288 292 295 307 311 311 317 321 326 329 326 332 336 322 310 302 290 280 265 263
205 221 245 255 261 266 268 268 267 276 281 292 310 273 206 318 307 324 309 320 317 306 286 287 309 281 275 271 269 279 285 288 298 302 305 312 321 325 328 323 327 333 323 312 305 295 284 280 271
218 233 250 252 260 263 267 291 273 262 271 292 332 256 271 259 295 304 306 297 300 305 291 280 288 310 286 268 263 270 277 286 293 296 303 309 319 323 325 322 323 329 323 317 309 296 287 282 279
231 242 245 245 250 261 267 278 272 272 278 264 276 278 265 281 297 292 291 303 293 292 294 281 288 287 292 268 265 263 270 281 291 293 299 304 313 317 321 323 316 325 326 317 311 298 286 280 277
226 233 239 241 250 260 270 268 271 273 268 269 271 280 285 286 280 283 288 287 283 292 287 284 273 288 292 270 270 263 266 274 283 289 295 302 307 313 316 325 324 327 325 316 313 298 287 280 276
232 239 242 246 253 263 264 268 269 270 270 276 276 281 278 284 284 282 283 282 281 279 284 272 269 274 284 278 268 271 269 274 278 283 289 299 302 309 315 322 320 324 327 319 314 292 285 281 273
238 242 245 252 257 261 263 266 268 271 274 282 280 285 279 279 282 279 277 278 283 285 282 278 266 268 277 283 274 271 276 280 280 280 282 291 298 304 310 317 317 318 319 319 320 312 296 287 285
238 242 248 253 258 259 264 267 271 272 277 278 280 275 273 271 281 282 279 280 276 278 286 265 269 267 271 278 279 279 279 277 280 282 281 288 293 300 304 313 317 316 314 315 314 307 292 286 286
241 249 251 256 258 259 264 270 270 272 275 275 277 274 272 272 272 277 272 274 276 281 291 280 255 260 263 271 273 281 279 281 284 284 284 285 289 295 302 310 312 311 308 302 305 307 295 283 282
250 254 256 254 255 260 264 269 265 269 272 274 271 271 271 272 273 273 262 267 275 277 290 288 267 258 261 265 270 272 273 276 281 279 278 280 283 292 298 305 307 310 304 298 299 299 292 284 283
248 251 257 252 253 256 258 265 267 266 268 269 270 271 270 275 263 266 255 257 280 286 287 285 280 269 261 264 265 267 267 273 274 274 272 275 283 290 296 302 304 305 299 296 292 290 287 284 282
239 246 247 252 250 259 255 261 268 270 265 267 267 269 267 265 258 261 264 267 281 284 284 284 276 270 264 265 265 267 270 274 270 270 271 272 279 288 292 300 303 300 294 293 288 284 282 279 277
226 235 242 252 252 254 253 254 266 269 265 266 267 265 267 266 268 266 262 267 279 278 275 279 271 269 266 267 267 265 269 274 270 262 265 273 284 292 298 302 303 293 291 290 285 280 279 279 274
236 240 248 255 255 253 257 260 265 269 267 263 264 262 266 267 272 273 265 279 275 272 274 269 266 265 269 270 271 270 267 271 266 263 266 275 287 295 300 300 298 293 291 283 281 278 278 272 262
238 247 250 255 255 255 263 263 265 264 262 265 266 267 270 272 268 266 276 276 274 264 271 259 262 261 260 265 268 268 267 268 261 262 269 281 288 300 303 303 295 289 284 282 279 279 279 268 258
235 237 244 251 258 261 267 269 266 263 263 264 264 267 268 267 266 256 259 269 267 266 268 259 256 259 270 266 267 266 265 262 263 274 284 288 297 304 299 297 296 302 293 285 273 273 266 260 253
237 234 243 250 253 259 257 270 262 264 265 265 267 267 269 274 272 270 265 255 258 262 261 242 249 274 267 271 270 261 253 258 267 270 280 299 305 305 300 301 300 295 285 275 274 271 266 257 249
239 237 241 246 251 257 256 259 265 266 266 269 265 267 269 269 266 254 249 254 252 260 247 253 266 272 273 270 262 239 246 254 271 280 290 291 291 293 302 305 297 288 295 295 290 277 261 246 229
238 238 243 248 251 247 247 245 267 262 267 272 271 273 269 265 261 258 240 239 241 252 253 260 268 267 263 261 235 245 257 268 282 289 293 293 298 303 299 300 279 295 318 300 287 278 240 214 211
228 229 236 238 238 243 248 241 253 265 268 267 273 270 264 253 248 222 224 226 238 245 259 249 259 262 256 238 249 268 268 281 282 286 289 298 303 295 291 293 254 206 129 130 104 53 231 205 209
222 226 218 219 216 245 249 251 258 251 266 261 267 246 236 216 193 202 221 235 240 242 226 249 263 248 236 249 267 274 281 274 279 275 286 315 309 290 285 237 184 203 232 263 272 289 269 230 219
227 225 225 237 236 250 252 241 252 246 241 245 253 215 199 196 227 230 229 222 219 217 240 248 241 235 251 267 268 275 274 281 283 293 317 311 305 271 232 183 164 174 308 301 294 315 287 242 201
229 222 224 225 234 239 236 251 273 209 234 228 225 198 200 217 222 209 202 200 209 228 236 232 231 248 260 262 273 269 264 265 286 303 313 316 301 267 169 182 180 123 323 319 301 304 311 286 243
224 231 217 228 226 238 247 268 234 193 183 184 183 174 201 225 207 197 194 197 221 230 228 227 244 253 260 278 270 274 261 271 321 344 333 78 270 199 181 182 170 66 317 7 121 256 1 25 232
222 219 219 220 220 231 243 248 169 158 162 176 182 179 201 224 207 197 193 206 226 229 224 235 245 246 277 272 266 254 169 281 339 315 19 155 186 174 179 161 104 111 27 17 41 251 326 2 43
Height
3163 3164 3166 3167 3172 3168 3163 3161 3159 3158 3160 3160 3162 3163 3163 3164 3165 3166 3163 3163 3162 3164 3163 3163 3162 3160 3159 3158 3157 3155 3154 3153 3152 3150 3149 3148 3146 3144 3144 3142 3141 3140 3139 3138 3139 3139 3140 3141 3141
3162 3163 3165 3167 3167 3164 3160 3159 3160 3160 3156 3161 3162 3161 3163 3164 3164 3163 3163 3164 3159 3163 3161 3161 3160 3158 3157 3156 3155 3154 3153 3152 3150 3149 3148 3147 3146 3144 3142 3140 3138 3137 3136 3136 3135 3135 3136 3137 3137
3162 3162 3164 3165 3164 3160 3159 3159 3158 3161 3159 3161 3161 3160 3161 3163 3162 3162 3162 3162 3157 3162 3160 3158 3157 3156 3155 3153 3153 3152 3151 3150 3149 3148 3147 3146 3145 3143 3141 3139 3137 3135 3133 3132 3132 3132 3132 3132 3133
3160 3162 3163 3160 3160 3158 3157 3157 3161 3156 3159 3158 3160 3161 3160 3159 3159 3160 3161 3161 3155 3156 3159 3156 3154 3153 3152 3151 3151 3150 3149 3149 3147 3147 3146 3145 3143 3142 3140 3138 3135 3133 3130 3129 3128 3128 3128 3128 3129
3160 3160 3163 3160 3158 3157 3157 3157 3155 3157 3157 3158 3158 3160 3158 3157 3156 3156 3157 3159 3158 3149 3151 3155 3152 3150 3149 3149 3148 3148 3147 3147 3145 3145 3144 3143 3141 3140 3138 3136 3133 3131 3129 3127 3125 3124 3125 3125 3125
3157 3158 3159 3157 3156 3156 3156 3155 3153 3156 3157 3157 3157 3156 3160 3156 3153 3156 3154 3154 3155 3154 3145 3151 3150 3148 3146 3146 3146 3146 3145 3145 3143 3142 3141 3141 3139 3137 3136 3134 3131 3128 3125 3124 3123 3122 3121 3121 3122
3152 3157 3155 3155 3154 3153 3153 3151 3152 3155 3157 3157 3154 3156 3158 3157 3154 3152 3152 3152 3150 3151 3143 3140 3145 3145 3144 3143 3143 3143 3142 3142 3141 3140 3138 3137 3136 3134 3133 3131 3128 3125 3123 3120 3118 3117 3116 3116 3116
3150 3153 3151 3152 3151 3151 3149 3150 3152 3154 3154 3154 3154 3155 3157 3157 3156 3154 3150 3152 3153 3145 3142 3135 3136 3142 3141 3139 3139 3139 3139 3139 3138 3137 3136 3135 3133 3132 3131 3128 3126 3122 3119 3116 3114 3112 3112 3112 3112
3149 3149 3145 3147 3149 3149 3149 3148 3150 3151 3150 3151 3152 3153 3152 3152 3152 3150 3148 3148 3150 3151 3146 3130 3131 3135 3138 3135 3135 3135 3135 3135 3134 3134 3132 3132 3130 3128 3126 3126 3124 3120 3116 3113 3110 3108 3107 3107 3107
3143 3141 3139 3144 3146 3145 3145 3146 3147 3148 3148 3150 3149 3150 3150 3149 3147 3146 3145 3144 3145 3146 3146 3135 3128 3123 3132 3132 3131 3131 3130 3130 3130 3130 3129 3128 3126 3125 3122 3118 3115 3114 3112 3110 3106 3104 3103 3103 3103
3138 3130 3138 3140 3142 3143 3142 3141 3143 3143 3143 3145 3143 3145 3145 3142 3141 3141 3141 3139 3139 3139 3139 3137 3127 3123 3123 3126 3126 3127 3126 3125 3125 3126 3125 3123 3122 3120 3117 3114 3110 3107 3105 3105 3102 3100 3098 3098 3099
3131 3129 3134 3135 3138 3137 3136 3137 3136 3137 3137 3139 3139 3139 3138 3137 3135 3135 3135 3134 3133 3133 3131 3131 3123 3120 3120 3118 3118 3122 3122 3121 3121 3121 3120 3119 3118 3116 3113 3110 3108 3104 3101 3099 3096 3093 3093 3094 3093
3120 3124 3129 3130 3132 3131 3131 3130 3130 3129 3132 3132 3132 3131 3131 3130 3129 3128 3130 3128 3126 3124 3123 3124 3117 3116 3116 3115 3113 3112 3115 3115 3116 3115 3115 3114 3113 3110 3108 3105 3104 3102 3096 3094 3093 3091 3090 3090 3089
3119 3121 3120 3123 3124 3124 3124 3123 3124 3123 3127 3124 3125 3123 3122 3122 3123 3122 3123 3121 3119 3117 3116 3116 3111 3110 3111 3112 3110 3108 3107 3107 3108 3107 3106 3108 3107 3105 3102 3100 3099 3098 3095 3092 3089 3086 3086 3086 3086
3114 3113 3112 3110 3116 3113 3121 3111 3110 3116 3118 3115 3115 3115 3115 3115 3114 3113 3114 3114 3111 3110 3109 3107 3105 3104 3105 3107 3106 3104 3103 3102 3102 3100 3100 3100 3102 3100 3098 3096 3092 3091 3090 3087 3084 3083 3082 3081 3080
3104 3107 3098 3100 3108 3101 3116 3100 3101 3108 3110 3107 3108 3107 3106 3106 3107 3105 3105 3105 3104 3104 3100 3099 3098 3095 3098 3100 3101 3099 3098 3098 3095 3096 3095 3094 3095 3095 3093 3091 3088 3085 3083 3081 3079 3078 3078 3077 3076
3094 3089 3088 3086 3097 3101 3104 3097 3090 3099 3101 3099 3098 3098 3098 3098 3098 3098 3097 3099 3099 3097 3093 3092 3091 3088 3091 3093 3094 3094 3093 3093 3090 3089 3088 3089 3090 3090 3089 3086 3082 3079 3077 3075 3074 3073 3073 3072 3072
3076 3083 3074 3082 3090 3092 3091 3089 3084 3091 3093 3091 3091 3090 3089 3089 3089 3090 3090 3091 3092 3089 3086 3085 3085 3084 3086 3087 3087 3088 3087 3086 3085 3084 3083 3083 3083 3083 3081 3078 3075 3073 3072 3070 3068 3068 3067 3067 3067
3076 3073 3073 3077 3083 3085 3084 3083 3076 3083 3083 3082 3081 3080 3081 3083 3084 3085 3082 3083 3084 3081 3081 3079 3081 3080 3079 3080 3080 3081 3080 3080 3080 3079 3080 3080 3080 3078 3073 3071 3069 3067 3065 3063 3062 3061 3061 3061 3061
3068 3069 3066 3070 3076 3078 3076 3073 3071 3073 3073 3074 3074 3072 3073 3074 3075 3075 3075 3075 3074 3074 3075 3074 3075 3076 3075 3075 3076 3075 3075 3075 3075 3075 3075 3076 3076 3072 3067 3065 3063 3060 3058 3056 3056 3055 3055 3055 3055
3056 3056 3063 3064 3072 3071 3071 3064 3061 3063 3064 3065 3065 3066 3066 3065 3064 3065 3067 3068 3066 3068 3068 3069 3070 3071 3070 3070 3070 3070 3070 3069 3071 3072 3071 3070 3069 3066 3063 3060 3057 3055 3052 3051 3051 3052 3051 3051 3051
3046 3055 3061 3063 3067 3062 3069 3052 3048 3055 3056 3057 3058 3057 3056 3055 3056 3057 3060 3058 3060 3062 3063 3063 3065 3066 3066 3066 3066 3066 3067 3067 3068 3069 3066 3063 3062 3060 3057 3056 3054 3051 3049 3048 3048 3048 3047 3048 3048
3033 3057 3055 3057 3058 3061 3057 3056 3024 3049 3048 3050 3050 3049 3048 3049 3050 3052 3055 3051 3055 3057 3059 3060 3061 3061 3061 3061 3062 3063 3064 3064 3064 3064 3062 3062 3059 3056 3054 3052 3050 3048 3047 3047 3046 3045 3045 3044 3045
3045 3047 3050 3052 3052 3047 3037 3050 3019 3039 3044 3042 3042 3042 3041 3042 3043 3045 3044 3046 3050 3053 3056 3056 3056 3057 3057 3058 3060 3061 3061 3061 3061 3060 3059 3058 3056 3053 3051 3049 3047 3047 3046 3046 3046 3045 3044 3044 3046
3034 3039 3041 3045 3040 3023 3037 3039 3023 3034 3037 3034 3034 3034 3035 3037 3037 3035 3039 3043 3048 3050 3052 3053 3053 3054 3054 3056 3057 3058 3059 3058 3057 3056 3055 3054 3051 3049 3048 3047 3047 3047 3047 3046 3046 3045 3045 3046 3047
3022 3025 3024 3024 3022 3023 3032 3024 3020 3025 3027 3028 3028 3028 3031 3033 3034 3034 3038 3042 3045 3047 3048 3050 3050 3051 3053 3054 3055 3055 3055 3054 3055 3054 3052 3050 3048 3047 3046 3047 3046 3047 3047 3047 3046 3046 3045 3045 3046
3012 3019 3017 3024 3021 3021 3013 3013 3012 3018 3020 3023 3023 3026 3029 3030 3031 3032 3036 3039 3042 3044 3046 3047 3049 3050 3051 3052 3052 3052 3051 3051 3051 3050 3048 3048 3046 3046 3046 3046 3046 3046 3046 3046 3045 3045 3045 3045 3045
3004 3012 3019 3014 3017 3013 3011 3006 3004 3009 3012 3017 3020 3022 3024 3027 3028 3030 3034 3037 3041 3042 3044 3046 3047 3048 3049 3049 3049 3049 3049 3048 3048 3047 3046 3046 3045 3045 3046 3046 3046 3046 3046 3046 3046 3045 3045 3045 3044
2997 2998 3003 3012 3013 3008 3010 3005 3002 3004 3009 3013 3017 3020 3021 3024 3027 3030 3033 3036 3039 3041 3043 3044 3046 3046 3046 3046 3046 3047 3046 3045 3046 3045 3045 3045 3046 3046 3046 3047 3047 3046 3046 3046 3046 3046 3044 3041 3040
2991 2993 2998 2999 3004 3008 3010 3004 3002 3004 3008 3011 3015 3017 3020 3023 3025 3029 3032 3036 3038 3040 3042 3043 3044 3044 3045 3044 3044 3044 3044 3044 3044 3044 3044 3044 3046 3047 3046 3046 3047 3047 3047 3047 3047 3046 3044 3042 3042